Regional Weather Roundup
Issued by NWS

Home | Current Version | Previous Version | Graphics & Text | Print | Product List | Glossary On
Versions: 1 2 3 4 5 6 7 8 9 10 11 12 13 14 15 16 17 18 19 20 21 22 23 24 25 26 27 28 29 30 31 32 33 34 35 36 37 38 39 40 41 42 43 44 45 46 47 48 49 50
374
ASUS43 KDTX 270510
RWRMI
MICHIGAN HOURLY REGIONAL WEATHER ROUNDUP
NATIONAL WEATHER SERVICE DETROIT/PONTIAC MI
100 AM EDT TUE SEP 27 2016

NOTE: "FAIR" INDICATES FEW OR NO CLOUDS BELOW 12,000 FEET WITH NO
SIGNIFICANT WEATHER AND/OR OBSTRUCTION TO VISIBILITY.

MIZ047>049-052>055-059>063-066>070-074>076-081>083-270600-
SOUTHEAST LOWER MICHIGAN

CITY           SKY/WX    TMP DP  RH WIND       PRES   REMARKS
ADRIAN         PTCLDY    51  42  71 W6        29.92F
ALMA           CLEAR     50  46  87 SW8       29.82F
ANN ARBOR      CLEAR     45  42  89 SW5       29.89F
BAD AXE        CLEAR     49  43  79 SW7       29.81F
CARO           CLEAR     46  44  91 SW5       29.82S
DETROIT CITY   PTCLDY    58  40  51 SW10      29.88F
DETROIT        PTCLDY    53  43  68 SW10      29.90F
FLINT          MOCLDY    51  45  79 S8        29.85F
GROSSE ILE     CLEAR     58  41  53 SW7       29.89F
HILLSDALE      CLEAR     52  37  58 SW6       29.91S
HOWELL         PTCLDY    47  43  85 S3        29.86F

CITY           SKY/WX    TMP DP  RH WIND       PRES   REMARKS
JACKSON        CLEAR     54  41  61 SW8       29.88F
LAMBERTVILLE   CLEAR     54  43  66 S5        29.93S
LANSING        CLOUDY    54  41  61 SW10      29.85F
LAPEER         FAIR      51  44  79 SW6       29.85F
MASON          CLOUDY    51  42  70 S6        29.86F
MONROE         CLEAR     53  44  71 SW6       29.90F
MT. CLEMENS    PTCLDY    53  43  68 W1        29.86S
PONTIAC        PTCLDY    51  43  74 S6        29.86F
PORT HURON     PTCLDY    50  45  81 S3        29.87F
TRI CITIES     MOCLDY    52  44  74 SW9       29.82F
MIDLAND        FAIR      50  42  74 SW3       29.80F
TROY           CLEAR     55  40  55 S3        29.89F
SAGINAW HB     PTCLDY    50  43  76 SW8       29.81F
$$
MIZ043>046-050>051-056>058-064>065-071>073-077>080-270600-
SOUTHWEST LOWER MICHIGAN

CITY           SKY/WX    TMP DP  RH WIND       PRES   REMARKS
BATTLE CREEK   MOCLDY    54  43  66 SW10      29.88F
BENTON HARBOR  PTCLDY    65  36  34 W21G31    29.88F
BIG RAPIDS     CLEAR     49  47  92 CALM      29.78F
COLDWATER      CLEAR     53  38  58 SW7       29.91F
FREMONT        FAIR      56  33  42 W7        29.80F
HOLLAND        CLEAR     62  41  46 W10       29.85F
GRAND RAPIDS   CLEAR     50  42  74 SW5       29.84F
IONIA          FAIR      50  42  73 S7        29.83F
KALAMAZOO      PTCLDY    55  40  56 SW9       29.88F
LUDINGTON      MOCLDY    60  43  53 W14G24    29.75F
MARSHALL       CLEAR     54  41  61 SW6       29.88F
MOUNT PLEASANT CLEAR     51  42  70 S5        29.79F
MUSKEGON       CLEAR     62  38  40 W12G22    29.81F
SOUTH HAVEN    PTCLDY    66  39  37 W14G24    29.86F
$$
MIZ016>042-270600-
NORTHERN LOWER MICHIGAN

CITY           SKY/WX    TMP DP  RH WIND       PRES   REMARKS
ALPENA         MOCLDY    53  45  74 SW8       29.70F
BEAVER ISLAND  LGT RAIN  54  49  82 W24G36    29.62S
BELLAIRE       LGT RAIN  53  50  87 SW7       29.69F
CADILLAC       CLOUDY    51  43  73 SW8       29.73F
CHARLEVOIX     LGT RAIN  55  47  74 W21G31    29.67F
FRANKFORT      CLOUDY    60  42  50 W10G23    29.71F
GAYLORD        LGT RAIN  50  46  86 SW12      29.69F
GRAYLING       CLOUDY    51  47  86 SW7       29.72F
HARBOR SPRINGS LGT RAIN  56  49  77 W17G30    29.63F
HOUGHTON LAKE  CLOUDY    51  44  77 SW7       29.75F
MANISTEE       CLOUDY    60  42  51 W22       29.72F
OSCODA         MOCLDY    50  42  74 SW10      29.75S
PELLSTON       LGT RAIN  53  48  83 VRB6      29.63F
ROGERS CITY    CLOUDY    53  47  80 SW10      29.68S
TRAVERSE CITY  CLOUDY    53  48  83 VRB7      29.69F
$$
MIZ007>008-015-270600-
EASTERN UPPER MICHIGAN

CITY           SKY/WX    TMP DP  RH WIND       PRES   REMARKS
KINROSS        CLOUDY    51  46  83 SW7       29.59F
MACKINAC ISLAN CLOUDY    55  47  75 W15G31    29.60F
NEWBERRY       CLOUDY    50  47  87 SW14      29.56F
S. S. MARIE    LGT RAIN  52  46  80 SW7       29.57F
MUNISING         N/A     51  47  86 S9G17     29.54F
$$
MIZ004>006-011>014-085-270600-
CENTRAL UPPER MICHIGAN

CITY           SKY/WX    TMP DP  RH WIND       PRES   REMARKS
MANISTIQUE     LGT RAIN  52  46  82 W8G16     29.59F
ESCANABA       CLOUDY    53  46  77 SW12      29.61F
MENOMINEE      CLOUDY    54  43  66 W9        29.68F
SAWYER-GWINN   CLOUDY    49  45  88 SW12G20   29.57F
$$
MIZ001>003-009>011-084-270600-
WESTERN UPPER MICHIGAN

CITY           SKY/WX    TMP DP  RH WIND       PRES   REMARKS
IRON MOUNTAIN  CLOUDY    51  44  77 W10G20    29.61F
HOUGHTON       LGT RAIN  51  47  86 W24G38    29.48S
COPPER HARBOR    N/A     53  50  89 NW14G23   29.44F
IRONWOOD       LGT RAIN  49  47  93 W16       29.64F
$$

ABBREVIATIONS USED IN REMARKS
   TC - TEMPERATURE IN CELSIUS
  WCI - WIND CHILL INDEX
   HX - HEAT INDEX
  VSB - VISIBILITY





USA.gov is the U.S. government's official web portal to all federal, state and local government web resources and services.